Year,Month,Day,Hour,Minute,Value (Times are PST for temperature in C)
2008,06,30,00,00,17.10
2008,06,30,00,01,17.10
2008,06,30,00,02,17.10
2008,06,30,00,03,17.10
2008,06,30,00,04,17.10
2008,06,30,00,05,17.10
2008,06,30,00,06,17.10
2008,06,30,00,07,17.10
2008,06,30,00,08,17.10
2008,06,30,00,09,17.10
2008,06,30,00,10,17.10
2008,06,30,00,11,17.10
2008,06,30,00,12,17.20
2008,06,30,00,13,17.20
2008,06,30,00,14,17.20
2008,06,30,00,15,17.10
2008,06,30,00,16,17.10
2008,06,30,00,17,17.10
2008,06,30,00,18,17.00
2008,06,30,00,19,16.90
2008,06,30,00,20,16.60
2008,06,30,00,21,16.30
2008,06,30,00,22,16.10
2008,06,30,00,23,16.00
2008,06,30,00,24,15.90
2008,06,30,00,25,15.80
2008,06,30,00,26,15.70
2008,06,30,00,27,15.60
2008,06,30,00,28,15.50
2008,06,30,00,29,15.40
2008,06,30,00,30,15.30
2008,06,30,00,31,15.30
2008,06,30,00,32,15.20
2008,06,30,00,33,15.20
2008,06,30,00,34,15.10
2008,06,30,00,35,15.00
2008,06,30,00,36,15.00
2008,06,30,00,37,15.00
2008,06,30,00,38,15.00
2008,06,30,00,39,15.00
2008,06,30,00,40,15.00
2008,06,30,00,41,15.00
2008,06,30,00,42,15.00
2008,06,30,00,43,15.00
2008,06,30,00,44,15.00
2008,06,30,00,45,15.00
2008,06,30,00,46,14.90
2008,06,30,00,47,14.80
2008,06,30,00,48,14.70
2008,06,30,00,49,14.60
2008,06,30,00,50,14.40
2008,06,30,00,51,14.20
2008,06,30,00,52,14.10
2008,06,30,00,53,14.00
2008,06,30,00,54,13.90
2008,06,30,00,55,13.80
2008,06,30,00,56,13.80
2008,06,30,00,57,13.70
2008,06,30,00,58,13.70
2008,06,30,00,59,13.70
2008,06,30,01,00,13.70
2008,06,30,01,01,13.70
2008,06,30,01,02,13.70
2008,06,30,01,03,13.60
2008,06,30,01,04,13.60
2008,06,30,01,05,13.60
2008,06,30,01,06,13.60
2008,06,30,01,07,13.60
2008,06,30,01,08,13.60
2008,06,30,01,09,13.60
2008,06,30,01,10,13.60
2008,06,30,01,11,13.60
2008,06,30,01,12,13.60
2008,06,30,01,13,13.60
2008,06,30,01,14,13.60
2008,06,30,01,15,13.60
2008,06,30,01,16,13.70
2008,06,30,01,17,13.70
2008,06,30,01,18,13.70
2008,06,30,01,19,13.70
2008,06,30,01,20,13.70
2008,06,30,01,21,13.70
2008,06,30,01,22,13.70
2008,06,30,01,23,13.70
2008,06,30,01,24,13.70
2008,06,30,01,25,13.70
2008,06,30,01,26,13.70
2008,06,30,01,27,13.80
2008,06,30,01,28,13.80
2008,06,30,01,29,13.80
2008,06,30,01,30,13.80
2008,06,30,01,31,13.80
2008,06,30,01,32,13.80
2008,06,30,01,33,13.90
2008,06,30,01,34,13.90
2008,06,30,01,35,13.90
2008,06,30,01,36,13.90
2008,06,30,01,37,13.90
2008,06,30,01,38,13.90
2008,06,30,01,39,13.90
2008,06,30,01,40,13.90
2008,06,30,01,41,13.90
2008,06,30,01,42,13.90
2008,06,30,01,43,13.90
2008,06,30,01,44,13.90
2008,06,30,01,45,13.90
2008,06,30,01,46,13.90
2008,06,30,01,47,13.90
2008,06,30,01,48,13.80
2008,06,30,01,49,13.80
2008,06,30,01,50,13.80
2008,06,30,01,51,13.80
2008,06,30,01,52,13.80
2008,06,30,01,53,13.70
2008,06,30,01,54,13.70
2008,06,30,01,55,13.70
2008,06,30,01,56,13.70
2008,06,30,01,57,13.70
2008,06,30,01,58,13.80
2008,06,30,01,59,13.80
2008,06,30,02,00,13.80
2008,06,30,02,01,13.80
2008,06,30,02,02,13.80
2008,06,30,02,03,13.90
2008,06,30,02,04,13.90
2008,06,30,02,05,13.90
2008,06,30,02,06,13.90
2008,06,30,02,07,14.00
2008,06,30,02,08,14.10
2008,06,30,02,09,14.10
2008,06,30,02,10,14.10
2008,06,30,02,11,14.20
2008,06,30,02,12,14.20
2008,06,30,02,13,14.20
2008,06,30,02,14,14.30
2008,06,30,02,15,14.30
2008,06,30,02,16,14.30
2008,06,30,02,17,14.30
2008,06,30,02,18,14.30
2008,06,30,02,19,14.30
2008,06,30,02,20,14.40
2008,06,30,02,21,14.40
2008,06,30,02,22,14.40
2008,06,30,02,23,14.40
2008,06,30,02,24,14.50
2008,06,30,02,25,14.50
2008,06,30,02,26,14.50
2008,06,30,02,27,14.50
2008,06,30,02,28,14.50
2008,06,30,02,29,14.50
2008,06,30,02,30,14.50
2008,06,30,02,31,14.50
2008,06,30,02,32,14.50
2008,06,30,02,33,14.50
2008,06,30,02,34,14.50
2008,06,30,02,35,14.50
2008,06,30,02,36,14.50
2008,06,30,02,37,14.60
2008,06,30,02,38,14.60
2008,06,30,02,39,14.60
2008,06,30,02,40,14.60
2008,06,30,02,41,14.70
2008,06,30,02,42,14.70
2008,06,30,02,43,14.70
2008,06,30,02,44,14.80
2008,06,30,02,45,14.80
2008,06,30,02,46,14.90
2008,06,30,02,47,15.00
2008,06,30,02,48,15.00
2008,06,30,02,49,15.00
2008,06,30,02,50,15.00
2008,06,30,02,51,15.00
2008,06,30,02,52,15.00
2008,06,30,02,53,15.00
2008,06,30,02,54,15.00
2008,06,30,02,55,15.00
2008,06,30,02,56,15.00
2008,06,30,02,57,15.00
2008,06,30,02,58,15.00
2008,06,30,02,59,15.00
2008,06,30,03,00,15.00
2008,06,30,03,01,15.00
2008,06,30,03,02,15.00
2008,06,30,03,03,15.00
2008,06,30,03,04,15.00
2008,06,30,03,05,15.00
2008,06,30,03,06,15.10
2008,06,30,03,07,15.20
2008,06,30,03,08,15.20
2008,06,30,03,09,15.30
2008,06,30,03,10,15.40
2008,06,30,03,11,15.50
2008,06,30,03,12,15.60
2008,06,30,03,13,15.80
2008,06,30,03,14,15.90
2008,06,30,03,15,16.00
2008,06,30,03,16,16.10
2008,06,30,03,17,16.10
2008,06,30,03,18,16.20
2008,06,30,03,19,16.20
2008,06,30,03,20,16.20
2008,06,30,03,21,16.20
2008,06,30,03,22,16.10
2008,06,30,03,23,16.00
2008,06,30,03,24,15.90
2008,06,30,03,25,15.80
2008,06,30,03,26,15.70
2008,06,30,03,27,15.60
2008,06,30,03,28,15.50
2008,06,30,03,29,15.40
2008,06,30,03,30,15.30
2008,06,30,03,31,15.10
2008,06,30,03,32,15.00
2008,06,30,03,33,15.00
2008,06,30,03,34,15.00
2008,06,30,03,35,15.00
2008,06,30,03,36,14.90
2008,06,30,03,37,14.80
2008,06,30,03,38,14.80
2008,06,30,03,39,14.70
2008,06,30,03,40,14.70
2008,06,30,03,41,14.70
2008,06,30,03,42,14.70
2008,06,30,03,43,14.70
2008,06,30,03,44,14.70
2008,06,30,03,45,14.70
2008,06,30,03,46,14.70
2008,06,30,03,47,14.70
2008,06,30,03,48,14.70
2008,06,30,03,49,14.80
2008,06,30,03,50,14.80
2008,06,30,03,51,14.80
2008,06,30,03,52,14.90
2008,06,30,03,53,15.00
2008,06,30,03,54,15.00
2008,06,30,03,55,15.00
2008,06,30,03,56,15.00
2008,06,30,03,57,15.00
2008,06,30,03,58,15.00
2008,06,30,03,59,15.00
2008,06,30,04,00,15.00
2008,06,30,04,01,15.10
2008,06,30,04,02,15.10
2008,06,30,04,03,15.20
2008,06,30,04,04,15.20
2008,06,30,04,05,15.30
2008,06,30,04,06,15.30
2008,06,30,04,07,15.30
2008,06,30,04,08,15.30
2008,06,30,04,09,15.30
2008,06,30,04,10,15.30
2008,06,30,04,11,15.30
2008,06,30,04,12,15.30
2008,06,30,04,13,15.30
2008,06,30,04,14,15.40
2008,06,30,04,15,15.40
2008,06,30,04,16,15.40
2008,06,30,04,17,15.40
2008,06,30,04,18,15.40
2008,06,30,04,19,15.40
2008,06,30,04,20,15.40
2008,06,30,04,21,15.40
2008,06,30,04,22,15.40
2008,06,30,04,23,15.40
2008,06,30,04,24,15.40
2008,06,30,04,25,15.50
2008,06,30,04,26,15.50
2008,06,30,04,27,15.50
2008,06,30,04,28,15.60
2008,06,30,04,29,15.60
2008,06,30,04,30,15.70
2008,06,30,04,31,15.70
2008,06,30,04,32,15.80
2008,06,30,04,33,15.90
2008,06,30,04,34,16.00
2008,06,30,04,35,16.00
2008,06,30,04,36,16.10
2008,06,30,04,37,16.10
2008,06,30,04,38,16.10
2008,06,30,04,39,16.20
2008,06,30,04,40,16.20
2008,06,30,04,41,16.20
2008,06,30,04,42,16.20
2008,06,30,04,43,16.20
2008,06,30,04,44,16.20
2008,06,30,04,45,16.20
2008,06,30,04,46,16.20
2008,06,30,04,47,16.20
2008,06,30,04,48,16.20
2008,06,30,04,49,16.20
2008,06,30,04,50,16.20
2008,06,30,04,51,16.20
2008,06,30,04,52,16.10
2008,06,30,04,53,16.10
2008,06,30,04,54,16.10
2008,06,30,04,55,16.10
2008,06,30,04,56,16.00
2008,06,30,04,57,16.00
2008,06,30,04,58,16.00
2008,06,30,04,59,16.00
2008,06,30,05,00,16.00
2008,06,30,05,01,16.00
2008,06,30,05,02,16.00
2008,06,30,05,03,16.00
2008,06,30,05,04,16.00
2008,06,30,05,05,16.00
2008,06,30,05,06,16.00
2008,06,30,05,07,16.00
2008,06,30,05,08,16.00
2008,06,30,05,09,16.00
2008,06,30,05,10,16.00
2008,06,30,05,11,16.00
2008,06,30,05,12,16.00
2008,06,30,05,13,16.00
2008,06,30,05,14,16.00
2008,06,30,05,15,16.00
2008,06,30,05,16,16.00
2008,06,30,05,17,16.00
2008,06,30,05,18,16.00
2008,06,30,05,19,16.00
2008,06,30,05,20,16.00
2008,06,30,05,21,16.00
2008,06,30,05,22,16.00
2008,06,30,05,23,16.00
2008,06,30,05,24,16.00
2008,06,30,05,25,16.00
2008,06,30,05,26,16.00
2008,06,30,05,27,16.00
2008,06,30,05,28,16.00
2008,06,30,05,29,16.00
2008,06,30,05,30,16.00
2008,06,30,05,31,16.00
2008,06,30,05,32,16.10
2008,06,30,05,33,16.10
2008,06,30,05,34,16.10
2008,06,30,05,35,16.10
2008,06,30,05,36,16.10
2008,06,30,05,37,16.10
2008,06,30,05,38,16.10
2008,06,30,05,39,16.10
2008,06,30,05,40,16.10
2008,06,30,05,41,16.10
2008,06,30,05,42,16.10
2008,06,30,05,43,16.20
2008,06,30,05,44,16.20
2008,06,30,05,45,16.20
2008,06,30,05,46,16.20
2008,06,30,05,47,16.20
2008,06,30,05,48,16.20
2008,06,30,05,49,16.30
2008,06,30,05,50,16.30
2008,06,30,05,51,16.30
2008,06,30,05,52,16.30
2008,06,30,05,53,16.30
2008,06,30,05,54,16.30
2008,06,30,05,55,16.30
2008,06,30,05,56,16.30
2008,06,30,05,57,16.30
2008,06,30,05,58,16.30
2008,06,30,05,59,16.30
2008,06,30,06,00,16.30
2008,06,30,06,01,16.30
2008,06,30,06,02,16.30
2008,06,30,06,03,16.20
2008,06,30,06,04,16.20
2008,06,30,06,05,16.20
2008,06,30,06,06,16.30
2008,06,30,06,07,16.30
2008,06,30,06,08,16.30
2008,06,30,06,09,16.30
2008,06,30,06,10,16.30
2008,06,30,06,11,16.30
2008,06,30,06,12,16.30
2008,06,30,06,13,16.30
2008,06,30,06,14,16.30
2008,06,30,06,15,16.30
2008,06,30,06,16,16.30
2008,06,30,06,17,16.30
2008,06,30,06,18,16.30
2008,06,30,06,19,16.40
2008,06,30,06,20,16.40
2008,06,30,06,21,16.40
2008,06,30,06,22,16.40
2008,06,30,06,23,16.40
2008,06,30,06,24,16.40
2008,06,30,06,25,16.40
2008,06,30,06,26,16.40
2008,06,30,06,27,16.40
2008,06,30,06,28,16.40
2008,06,30,06,29,16.40
2008,06,30,06,30,16.40
2008,06,30,06,31,16.40
2008,06,30,06,32,16.40
2008,06,30,06,33,16.50
2008,06,30,06,34,16.50
2008,06,30,06,35,16.50
2008,06,30,06,36,16.50
2008,06,30,06,37,16.60
2008,06,30,06,38,16.60
2008,06,30,06,39,16.60
2008,06,30,06,40,16.60
2008,06,30,06,41,16.70
2008,06,30,06,42,16.70
2008,06,30,06,43,16.70
2008,06,30,06,44,16.70
2008,06,30,06,45,16.70
2008,06,30,06,46,16.70
2008,06,30,06,47,16.70
2008,06,30,06,48,16.80
2008,06,30,06,49,16.80
2008,06,30,06,50,16.80
2008,06,30,06,51,16.80
2008,06,30,06,52,16.80
2008,06,30,06,53,16.80
2008,06,30,06,54,16.80
2008,06,30,06,55,16.80
2008,06,30,06,56,16.80
2008,06,30,06,57,16.90
2008,06,30,06,58,16.90
2008,06,30,06,59,16.90
2008,06,30,07,00,16.90
2008,06,30,07,01,16.90
2008,06,30,07,02,16.90
2008,06,30,07,03,16.90
2008,06,30,07,04,17.00
2008,06,30,07,05,17.00
2008,06,30,07,06,17.00
2008,06,30,07,07,17.10
2008,06,30,07,08,17.10
2008,06,30,07,09,17.10
2008,06,30,07,10,17.20
2008,06,30,07,11,17.20
2008,06,30,07,12,17.30
2008,06,30,07,13,17.30
2008,06,30,07,14,17.30
2008,06,30,07,15,17.40
2008,06,30,07,16,17.40
2008,06,30,07,17,17.40
2008,06,30,07,18,17.50
2008,06,30,07,19,17.50
2008,06,30,07,20,17.40
2008,06,30,07,21,17.40
2008,06,30,07,22,17.40
2008,06,30,07,23,17.40
2008,06,30,07,24,17.40
2008,06,30,07,25,17.40
2008,06,30,07,26,17.30
2008,06,30,07,27,17.30
2008,06,30,07,28,17.30
2008,06,30,07,29,17.30
2008,06,30,07,30,17.30
2008,06,30,07,31,17.20
2008,06,30,07,32,17.20
2008,06,30,07,33,17.20
2008,06,30,07,34,17.20
2008,06,30,07,35,17.20
2008,06,30,07,36,17.20
2008,06,30,07,37,17.00
2008,06,30,07,38,16.60
2008,06,30,07,39,16.00
2008,06,30,07,40,15.60
2008,06,30,07,41,15.20
2008,06,30,07,42,15.00
2008,06,30,07,43,14.80
2008,06,30,07,44,14.50
2008,06,30,07,45,14.30
2008,06,30,07,46,14.20
2008,06,30,07,47,14.10
2008,06,30,07,48,14.10
2008,06,30,07,49,14.10
2008,06,30,07,50,14.10
2008,06,30,07,51,14.00
2008,06,30,07,52,14.00
2008,06,30,07,53,14.00
2008,06,30,07,54,13.90
2008,06,30,07,55,13.90
2008,06,30,07,56,13.80
2008,06,30,07,57,13.70
2008,06,30,07,58,13.50
2008,06,30,07,59,13.40
2008,06,30,08,00,13.30
2008,06,30,08,01,13.30
2008,06,30,08,02,13.20
2008,06,30,08,03,13.20
2008,06,30,08,04,13.20
2008,06,30,08,05,13.10
2008,06,30,08,06,13.10
2008,06,30,08,07,13.00
2008,06,30,08,08,13.00
2008,06,30,08,09,13.00
2008,06,30,08,10,13.00
2008,06,30,08,11,12.90
2008,06,30,08,12,12.90
2008,06,30,08,13,13.00
2008,06,30,08,14,13.00
2008,06,30,08,15,13.00
2008,06,30,08,16,13.10
2008,06,30,08,17,13.10
2008,06,30,08,18,13.20
2008,06,30,08,19,13.20
2008,06,30,08,20,13.20
2008,06,30,08,21,13.30
2008,06,30,08,22,13.30
2008,06,30,08,23,13.30
2008,06,30,08,24,13.30
2008,06,30,08,25,13.30
2008,06,30,08,26,13.40
2008,06,30,08,27,13.40
2008,06,30,08,28,13.40
2008,06,30,08,29,13.40
2008,06,30,08,30,13.40
2008,06,30,08,31,13.40
2008,06,30,08,32,13.50
2008,06,30,08,33,13.50
2008,06,30,08,34,13.50
2008,06,30,08,35,13.50
2008,06,30,08,36,13.60
2008,06,30,08,37,13.60
2008,06,30,08,38,13.60
2008,06,30,08,39,13.70
2008,06,30,08,40,13.70
2008,06,30,08,41,13.70
2008,06,30,08,42,13.80
2008,06,30,08,43,13.80
2008,06,30,08,44,13.80
2008,06,30,08,45,13.80
2008,06,30,08,46,13.80
2008,06,30,08,47,13.90
2008,06,30,08,48,13.90
2008,06,30,08,49,13.90
2008,06,30,08,50,13.90
2008,06,30,08,51,13.90
2008,06,30,08,52,14.00
2008,06,30,08,53,14.00
2008,06,30,08,54,14.10
2008,06,30,08,55,14.10
2008,06,30,08,56,14.20
2008,06,30,08,57,14.30
2008,06,30,08,58,14.30
2008,06,30,08,59,14.40
2008,06,30,09,00,14.40
2008,06,30,09,01,14.50
2008,06,30,09,02,14.50
2008,06,30,09,03,14.60
2008,06,30,09,04,14.70
2008,06,30,09,05,14.70
2008,06,30,09,06,14.80
2008,06,30,09,07,14.90
2008,06,30,09,08,15.00
2008,06,30,09,09,15.00
2008,06,30,09,10,15.00
2008,06,30,09,11,15.10
2008,06,30,09,12,15.30
2008,06,30,09,13,15.40
2008,06,30,09,14,15.50
2008,06,30,09,15,15.50
2008,06,30,09,16,15.50
2008,06,30,09,17,15.60
2008,06,30,09,18,15.60
2008,06,30,09,19,15.70
2008,06,30,09,20,15.90
2008,06,30,09,21,16.00
2008,06,30,09,22,16.20
2008,06,30,09,23,16.30
2008,06,30,09,24,16.40
2008,06,30,09,25,16.60
2008,06,30,09,26,16.80
2008,06,30,09,27,16.90
2008,06,30,09,28,17.10
2008,06,30,09,29,17.20
2008,06,30,09,30,17.40
2008,06,30,09,31,17.60
2008,06,30,09,32,17.70
2008,06,30,09,33,17.80
2008,06,30,09,34,18.00
2008,06,30,09,35,18.10
2008,06,30,09,36,18.10
2008,06,30,09,37,18.30
2008,06,30,09,38,18.30
2008,06,30,09,39,18.40
2008,06,30,09,40,18.50
2008,06,30,09,41,18.60
2008,06,30,09,42,18.40
2008,06,30,09,43,18.00
2008,06,30,09,44,17.60
2008,06,30,09,45,17.30
2008,06,30,09,46,17.00
2008,06,30,09,47,16.90
2008,06,30,09,48,16.80
2008,06,30,09,49,16.80
2008,06,30,09,50,16.80
2008,06,30,09,51,16.90
2008,06,30,09,52,16.90
2008,06,30,09,53,17.00
2008,06,30,09,54,17.00
2008,06,30,09,55,17.10
2008,06,30,09,56,17.10
2008,06,30,09,57,17.10
2008,06,30,09,58,17.10
2008,06,30,09,59,17.30
2008,06,30,10,00,17.40
2008,06,30,10,01,17.60
2008,06,30,10,02,17.70
2008,06,30,10,03,17.90
2008,06,30,10,04,18.00
2008,06,30,10,05,18.10
2008,06,30,10,06,18.20
2008,06,30,10,07,18.30
2008,06,30,10,08,18.40
2008,06,30,10,09,18.40
2008,06,30,10,10,18.30
2008,06,30,10,11,18.40
2008,06,30,10,12,18.50
2008,06,30,10,13,18.50
2008,06,30,10,14,18.50
2008,06,30,10,15,18.60
2008,06,30,10,16,18.70
2008,06,30,10,17,18.70
2008,06,30,10,18,18.80
2008,06,30,10,19,18.80
2008,06,30,10,20,18.80
2008,06,30,10,21,18.80
2008,06,30,10,22,18.80
2008,06,30,10,23,18.90
2008,06,30,10,24,18.90
2008,06,30,10,25,19.00
2008,06,30,10,26,19.10
2008,06,30,10,27,19.20
2008,06,30,10,28,19.20
2008,06,30,10,29,19.20
2008,06,30,10,30,19.20
2008,06,30,10,31,19.20
2008,06,30,10,32,19.30
2008,06,30,10,33,19.40
2008,06,30,10,34,19.50
2008,06,30,10,35,19.60
2008,06,30,10,36,19.70
2008,06,30,10,37,19.70
2008,06,30,10,38,19.80
2008,06,30,10,39,19.80
2008,06,30,10,40,19.80
2008,06,30,10,41,19.90
2008,06,30,10,42,19.90
2008,06,30,10,43,20.00
2008,06,30,10,44,20.00
2008,06,30,10,45,20.00
2008,06,30,10,46,20.00
2008,06,30,10,47,20.10
2008,06,30,10,48,20.20
2008,06,30,10,49,20.30
2008,06,30,10,50,20.30
2008,06,30,10,51,20.40
2008,06,30,10,52,20.30
2008,06,30,10,53,20.30
2008,06,30,10,54,20.30
2008,06,30,10,55,20.40
2008,06,30,10,56,20.40
2008,06,30,10,57,20.50
2008,06,30,10,58,20.60
2008,06,30,10,59,20.60
2008,06,30,11,00,20.60
2008,06,30,11,01,20.70
2008,06,30,11,02,20.70
2008,06,30,11,03,20.80
2008,06,30,11,04,20.90
2008,06,30,11,05,20.90
2008,06,30,11,06,20.90
2008,06,30,11,07,20.90
2008,06,30,11,08,20.90
2008,06,30,11,09,20.90
2008,06,30,11,10,20.90
2008,06,30,11,11,21.10
2008,06,30,11,12,21.20
2008,06,30,11,13,21.20
2008,06,30,11,14,21.20
2008,06,30,11,15,21.30
2008,06,30,11,16,21.40
2008,06,30,11,17,21.60
2008,06,30,11,18,21.70
2008,06,30,11,19,21.70
2008,06,30,11,20,21.60
2008,06,30,11,21,21.60
2008,06,30,11,22,21.60
2008,06,30,11,23,21.60
2008,06,30,11,24,21.60
2008,06,30,11,25,21.60
2008,06,30,11,26,21.70
2008,06,30,11,27,21.70
2008,06,30,11,28,21.60
2008,06,30,11,29,21.60
2008,06,30,11,30,21.50
2008,06,30,11,31,21.50
2008,06,30,11,32,21.40
2008,06,30,11,33,21.40
2008,06,30,11,34,21.30
2008,06,30,11,35,21.30
2008,06,30,11,36,21.30
2008,06,30,11,37,21.30
2008,06,30,11,38,21.30
2008,06,30,11,39,21.30
2008,06,30,11,40,21.30
2008,06,30,11,41,21.30
2008,06,30,11,42,21.30
2008,06,30,11,43,21.30
2008,06,30,11,44,21.40
2008,06,30,11,45,21.50
2008,06,30,11,46,21.60
2008,06,30,11,47,21.80
2008,06,30,11,48,21.80
2008,06,30,11,49,21.90
2008,06,30,11,50,21.90
2008,06,30,11,51,22.00
2008,06,30,11,52,22.00
2008,06,30,11,53,22.10
2008,06,30,11,54,22.10
2008,06,30,11,55,22.10
2008,06,30,11,56,22.00
2008,06,30,11,57,22.10
2008,06,30,11,58,22.00
2008,06,30,11,59,22.00
2008,06,30,12,00,21.90
2008,06,30,12,01,21.90
2008,06,30,12,02,22.00
2008,06,30,12,03,22.20
2008,06,30,12,04,22.30
2008,06,30,12,05,22.40
2008,06,30,12,06,22.60
2008,06,30,12,07,22.70
2008,06,30,12,08,22.80
2008,06,30,12,09,23.00
2008,06,30,12,10,23.00
2008,06,30,12,11,23.10
2008,06,30,12,12,23.10
2008,06,30,12,13,23.20
2008,06,30,12,14,23.20
2008,06,30,12,15,23.30
2008,06,30,12,16,23.40
2008,06,30,12,17,23.60
2008,06,30,12,18,23.70
2008,06,30,12,19,23.80
2008,06,30,12,20,23.80
2008,06,30,12,21,23.90
2008,06,30,12,22,24.00
2008,06,30,12,23,24.10
2008,06,30,12,24,24.20
2008,06,30,12,25,24.30
2008,06,30,12,26,24.30
2008,06,30,12,27,24.40
2008,06,30,12,28,24.40
2008,06,30,12,29,24.50
2008,06,30,12,30,24.50
2008,06,30,12,31,24.40
2008,06,30,12,32,24.20
2008,06,30,12,33,24.00
2008,06,30,12,34,23.90
2008,06,30,12,35,23.70
2008,06,30,12,36,23.50
2008,06,30,12,37,23.40
2008,06,30,12,38,23.20
2008,06,30,12,39,23.00
2008,06,30,12,40,22.80
2008,06,30,12,41,22.50
2008,06,30,12,42,22.40
2008,06,30,12,43,22.30
2008,06,30,12,44,22.20
2008,06,30,12,45,22.10
2008,06,30,12,46,22.10
2008,06,30,12,47,22.10
2008,06,30,12,48,22.10
2008,06,30,12,49,22.10
2008,06,30,12,50,22.20
2008,06,30,12,51,22.20
2008,06,30,12,52,22.40
2008,06,30,12,53,22.50
2008,06,30,12,54,22.60
2008,06,30,12,55,22.70
2008,06,30,12,56,22.70
2008,06,30,12,57,22.70
2008,06,30,12,58,22.70
2008,06,30,12,59,22.70
2008,06,30,13,00,22.80
2008,06,30,13,01,22.80
2008,06,30,13,02,22.90
2008,06,30,13,03,23.00
2008,06,30,13,04,23.10
2008,06,30,13,05,23.30
2008,06,30,13,06,23.40
2008,06,30,13,07,23.60
2008,06,30,13,08,23.80
2008,06,30,13,09,23.80
2008,06,30,13,10,23.70
2008,06,30,13,11,23.60
2008,06,30,13,12,23.40
2008,06,30,13,13,23.30
2008,06,30,13,14,23.20
2008,06,30,13,15,23.10
2008,06,30,13,16,23.10
2008,06,30,13,17,23.10
2008,06,30,13,18,23.10
2008,06,30,13,19,23.30
2008,06,30,13,20,23.30
2008,06,30,13,21,23.40
2008,06,30,13,22,23.40
2008,06,30,13,23,23.40
2008,06,30,13,24,23.50
2008,06,30,13,25,23.60
2008,06,30,13,26,23.70
2008,06,30,13,27,23.80
2008,06,30,13,28,24.00
2008,06,30,13,29,24.10
2008,06,30,13,30,24.30
2008,06,30,13,31,24.40
2008,06,30,13,32,24.40
2008,06,30,13,33,24.40
2008,06,30,13,34,24.30
2008,06,30,13,35,24.30
2008,06,30,13,36,24.30
2008,06,30,13,37,24.40
2008,06,30,13,38,24.50
2008,06,30,13,39,24.50
2008,06,30,13,40,24.60
2008,06,30,13,41,24.70
2008,06,30,13,42,24.70
2008,06,30,13,43,24.70
2008,06,30,13,44,24.60
2008,06,30,13,45,24.60
2008,06,30,13,46,24.60
2008,06,30,13,47,24.60
2008,06,30,13,48,24.60
2008,06,30,13,49,24.60
2008,06,30,13,50,24.60
2008,06,30,13,51,24.70
2008,06,30,13,52,24.70
2008,06,30,13,53,24.80
2008,06,30,13,54,24.80
2008,06,30,13,55,24.90
2008,06,30,13,56,25.00
2008,06,30,13,57,25.10
2008,06,30,13,58,25.20
2008,06,30,13,59,25.30
2008,06,30,14,00,25.40
2008,06,30,14,01,25.40
2008,06,30,14,02,25.30
2008,06,30,14,03,25.20
2008,06,30,14,04,25.20
2008,06,30,14,05,25.30
2008,06,30,14,06,25.40
2008,06,30,14,07,25.50
2008,06,30,14,08,25.60
2008,06,30,14,09,25.70
2008,06,30,14,10,25.80
2008,06,30,14,11,25.70
2008,06,30,14,12,25.70
2008,06,30,14,13,25.80
2008,06,30,14,14,25.90
2008,06,30,14,15,25.90
2008,06,30,14,16,25.90
2008,06,30,14,17,26.00
2008,06,30,14,18,26.10
2008,06,30,14,19,26.20
2008,06,30,14,20,26.30
2008,06,30,14,21,26.30
2008,06,30,14,22,26.30
2008,06,30,14,23,26.20
2008,06,30,14,24,26.20
2008,06,30,14,25,26.30
2008,06,30,14,26,26.30
2008,06,30,14,27,26.30
2008,06,30,14,28,26.30
2008,06,30,14,29,26.30
2008,06,30,14,30,26.30
2008,06,30,14,31,26.40
2008,06,30,14,32,26.40
2008,06,30,14,33,26.40
2008,06,30,14,34,26.40
2008,06,30,14,35,26.50
2008,06,30,14,36,26.60
2008,06,30,14,37,26.60
2008,06,30,14,38,26.60
2008,06,30,14,39,26.70
2008,06,30,14,40,26.70
2008,06,30,14,41,26.80
2008,06,30,14,42,26.90
2008,06,30,14,43,27.00
2008,06,30,14,44,27.00
2008,06,30,14,45,27.00
2008,06,30,14,46,27.20
2008,06,30,14,47,27.30
2008,06,30,14,48,27.30
2008,06,30,14,49,27.30
2008,06,30,14,50,27.30
2008,06,30,14,51,27.20
2008,06,30,14,52,27.30
2008,06,30,14,53,27.30
2008,06,30,14,54,27.20
2008,06,30,14,55,27.20
2008,06,30,14,56,27.10
2008,06,30,14,57,27.10
2008,06,30,14,58,27.00
2008,06,30,14,59,26.90
2008,06,30,15,00,26.80
2008,06,30,15,01,26.80
2008,06,30,15,02,26.80
2008,06,30,15,03,26.70
2008,06,30,15,04,26.70
2008,06,30,15,05,26.70
2008,06,30,15,06,26.60
2008,06,30,15,07,26.50
2008,06,30,15,08,26.30
2008,06,30,15,09,26.30
2008,06,30,15,10,26.40
2008,06,30,15,11,26.40
2008,06,30,15,12,26.40
2008,06,30,15,13,26.30
2008,06,30,15,14,26.30
2008,06,30,15,15,26.30
2008,06,30,15,16,26.50
2008,06,30,15,17,26.70
2008,06,30,15,18,26.80
2008,06,30,15,19,26.90
2008,06,30,15,20,27.00
2008,06,30,15,21,27.10
2008,06,30,15,22,27.20
2008,06,30,15,23,27.30
2008,06,30,15,24,27.30
2008,06,30,15,25,27.30
2008,06,30,15,26,27.30
2008,06,30,15,27,27.30
2008,06,30,15,28,27.20
2008,06,30,15,29,27.10
2008,06,30,15,30,27.10
2008,06,30,15,31,27.20
2008,06,30,15,32,27.10
2008,06,30,15,33,27.00
2008,06,30,15,34,26.90
2008,06,30,15,35,26.70
2008,06,30,15,36,26.60
2008,06,30,15,37,26.50
2008,06,30,15,38,26.40
2008,06,30,15,39,26.50
2008,06,30,15,40,26.60
2008,06,30,15,41,26.80
2008,06,30,15,42,26.70
2008,06,30,15,43,26.60
2008,06,30,15,44,26.60
2008,06,30,15,45,26.60
2008,06,30,15,46,26.60
2008,06,30,15,47,26.60
2008,06,30,15,48,26.70
2008,06,30,15,49,26.80
2008,06,30,15,50,26.90
2008,06,30,15,51,27.00
2008,06,30,15,52,27.10
2008,06,30,15,53,27.20
2008,06,30,15,54,27.20
2008,06,30,15,55,27.10
2008,06,30,15,56,27.00
2008,06,30,15,57,26.80
2008,06,30,15,58,26.60
2008,06,30,15,59,26.50
2008,06,30,16,00,26.40
2008,06,30,16,01,26.40
2008,06,30,16,02,26.30
2008,06,30,16,03,26.40
2008,06,30,16,04,26.40
2008,06,30,16,05,26.50
2008,06,30,16,06,26.50
2008,06,30,16,07,26.30
2008,06,30,16,08,26.20
2008,06,30,16,09,26.00
2008,06,30,16,10,25.90
2008,06,30,16,11,25.80
2008,06,30,16,12,25.70
2008,06,30,16,13,25.60
2008,06,30,16,14,25.60
2008,06,30,16,15,25.50
2008,06,30,16,16,25.40
2008,06,30,16,17,25.40
2008,06,30,16,18,25.40
2008,06,30,16,19,25.40
2008,06,30,16,20,25.40
2008,06,30,16,21,25.40
2008,06,30,16,22,25.40
2008,06,30,16,23,25.50
2008,06,30,16,24,25.60
2008,06,30,16,25,25.70
2008,06,30,16,26,25.70
2008,06,30,16,27,25.80
2008,06,30,16,28,25.90
2008,06,30,16,29,26.00
2008,06,30,16,30,26.20
2008,06,30,16,31,26.30
2008,06,30,16,32,26.50
2008,06,30,16,33,26.60
2008,06,30,16,34,26.70
2008,06,30,16,35,26.70
2008,06,30,16,36,26.70
2008,06,30,16,37,26.80
2008,06,30,16,38,26.80
2008,06,30,16,39,26.90
2008,06,30,16,40,27.00
2008,06,30,16,41,27.10
2008,06,30,16,42,27.10
2008,06,30,16,43,27.20
2008,06,30,16,44,27.20
2008,06,30,16,45,27.30
2008,06,30,16,46,27.40
2008,06,30,16,47,27.40
2008,06,30,16,48,27.50
2008,06,30,16,49,27.50
2008,06,30,16,50,27.60
2008,06,30,16,51,27.60
2008,06,30,16,52,27.70
2008,06,30,16,53,27.80
2008,06,30,16,54,27.80
2008,06,30,16,55,27.70
2008,06,30,16,56,27.70
2008,06,30,16,57,27.60
2008,06,30,16,58,27.60
2008,06,30,16,59,27.50
2008,06,30,17,00,27.50
2008,06,30,17,01,27.60
2008,06,30,17,02,27.60
2008,06,30,17,03,27.50
2008,06,30,17,04,27.40
2008,06,30,17,05,27.40
2008,06,30,17,06,27.40
2008,06,30,17,07,27.40
2008,06,30,17,08,27.40
2008,06,30,17,09,27.40
2008,06,30,17,10,27.40
2008,06,30,17,11,27.50
2008,06,30,17,12,27.50
2008,06,30,17,13,27.50
2008,06,30,17,14,27.50
2008,06,30,17,15,27.40
2008,06,30,17,16,27.40
2008,06,30,17,17,27.40
2008,06,30,17,18,27.40
2008,06,30,17,19,27.40